Location: ????????
(55.0808°N, 38.5463°E)
Time: 01:55:33
(UTC+00:00)

ACS3 Solar Sail - Visible Passes

Search period start: 21 June 2024 00:00
Search period end: 01 July 2024 00:00
Orbit: 992 x 1024 km, 97.4° (Epoch: 20 June)

Date Brightness Start Highest point End Pass type
(mag) Time Alt. Az. Time Alt. Az. Time Alt. Az.
21 Jun 5.1 18:57:28 10° S 19:03:41 71° W 19:09:56 10° NNW visible
21 Jun 7.0 20:45:14 10° WSW 20:48:59 16° W 20:52:45 10° NW visible
22 Jun 5.8 19:32:25 10° SSW 19:38:19 43° W 19:44:15 10° NNW visible
23 Jun 6.5 20:08:00 10° SW 20:13:08 26° W 20:18:19 10° NNW visible
24 Jun 5.2 18:56:38 10° S 19:02:50 69° W 19:09:04 10° NNW visible
24 Jun 7.0 20:44:32 10° WSW 20:48:10 16° W 20:51:49 10° NW visible
25 Jun 5.8 19:31:37 10° SSW 19:37:28 42° W 19:43:22 10° NNW visible
26 Jun 6.5 20:07:14 10° SW 20:12:19 26° W 20:17:25 10° NNW visible
27 Jun 5.2 18:55:47 10° S 19:01:59 68° W 19:08:12 10° NNW visible
27 Jun 7.0 20:43:50 10° WSW 20:47:20 15° W 20:50:53 10° NW visible
28 Jun 5.9 19:30:48 10° SSW 19:36:37 41° W 19:42:31 10° NNW visible
29 Jun 6.6 20:06:27 10° SW 20:11:28 25° W 20:16:31 10° NNW visible
30 Jun 7.1 20:43:07 10° WSW 20:46:31 15° WNW 20:49:57 10° NW visible
